Location: Erfurt
(50.9688°N, 11.0193°E)
Time: 02:53:00
(UTC+01:00)

ISS - Pass Details

Date: 11 November 2017
Orbit: 402 x 407 km, 51.6° (Epoch: 20 November)

Event Time Altitude Azimuth Distance (km) Brightness Sun altitude
Exits shadow 06:42:44 - 279° (W) 1,534 -1.6 -7.0°
Reaches altitude 10° 06:42:56 10° 278° (W) 1,458 -1.7 -7.0°
Maximum altitude 06:46:02 42° 206° (SSW) 589 -3.1 -6.5°
Drops below altitude 10° 06:49:08 10° 134° (SE) 1,453 0.3 -6.1°
Sets 06:51:16 0° 127° (SE) 2,309 1.8 -5.7°
